Simultaneous Nadir Overpasses (SNOs) Predictions

Prediction of SNOs between GOES-16 and METOP-C Satellite Orbit:

Table of predicted SNOs for the next 14.0 days since TLE Epoch: 1/14/2023
Index Date Time (GOES-16) GOES-16 Lat,Lon METOP-C Lat,Lon Distance(km) Time Diff (sec)
1 01/14/2023 02:43:16 0.00, -75.18 0.00, -77.85 296.60 80
2 01/15/2023 02:19:47 0.01, -75.18 0.55, -72.72 280.25 80
3 01/16/2023 14:41:17 -0.01, -75.21 0.44, -77.28 235.80 80
4 01/17/2023 14:17:57 -0.01, -75.21 -0.65, -72.28 334.06 80
5 01/19/2023 02:39:37 0.01, -75.20 -0.36, -76.87 190.64 80
6 01/20/2023 02:16:18 0.02, -75.21 0.79, -71.88 379.20 80
7 01/21/2023 14:37:47 -0.02, -75.23 0.24, -76.43 136.61 80
8 01/22/2023 14:14:26 -0.02, -75.24 -0.86, -71.43 433.77 80
9 01/24/2023 02:36:06 -0.01, -75.24 -0.21, -76.01 89.12 80
10 01/25/2023 02:12:46 -0.02, -75.25 0.95, -71.03 482.23 80
11 01/26/2023 14:34:16 0.02, -75.29 0.06, -75.58 31.80 80
